Simultaneous Nadir Overpasses (SNOs) Predictions

Prediction of SNOs between FY3D and AQUA Satellite Orbit:

Table of predicted SNOs for the next 14.0 days since TLE Epoch: 1/31/2020
Index Date (FY3D) Time (FY3D) Lat,Lon (FY3D) SZA (FY3D ) Date (AQUA) Time (AQUA) Lat,Lon (AQUA) SZA (AQUA ) Distance(km) Time Diff (sec)
1 02/02/2020 18:14:15 -68.56, -48.33 57.93 02/02/2020 18:14:42 -68.56, -48.31 57.96 0.84 27
2 02/02/2020 19:03:55 71.88, 124.19 118.66 02/02/2020 19:03:06 71.88, 124.16 118.72 0.97 49
3 02/05/2020 10:30:32 -68.99, 68.14 59.10 02/05/2020 10:31:04 -68.98, 68.09 59.12 2.09 32
4 02/05/2020 11:20:30 71.36,-120.86 118.46 02/05/2020 11:19:45 71.36,-120.82 118.50 1.45 45
5 02/08/2020 02:47:07 -68.45,-176.67 59.34 02/08/2020 02:47:43 -68.45,-176.68 59.37 0.61 36
6 02/08/2020 03:36:48 71.71, -4.32 117.30 02/08/2020 03:36:08 71.71, -4.37 117.36 1.88 40
7 02/10/2020 19:03:40 -68.03, -61.32 59.72 02/10/2020 19:04:20 -68.03, -61.31 59.77 0.38 40
8 02/10/2020 19:53:20 71.34, 110.92 116.86 02/10/2020 19:52:44 71.34, 110.91 116.91 0.40 36
9 02/13/2020 11:20:10 -67.70, 54.18 60.25 02/13/2020 11:20:54 -67.70, 54.20 60.30 0.86 44




NCC Satellite Simultaneous Nadir Overpasses (SNOs) Prediction Service
